This demonstration page uses our WeatherBlox Daily Observations layout. Learn more.

Hourly Observations for June 10, 2019

Temp ( °F °C ) Dew Point ( °F °C ) Humidity (%) Winds ( mph kmh ) Pressure ( in mb ) Visibility ( mi km ) Precip ( " mm )
12:15 am 00:15 Clear 49 9.2 47 8.3 94 94 W 3 6 30.42 1030 10 16.09344 0 0
12:35 am 00:35 Clear 47 8.1 45 7.3 95 95 W 6 9 30.42 1030 10 16.09344 0 0
12:55 am 00:55 Clear 46 7.9 44 6.8 93 93 NW 5 7 30.42 1030 10 16.09344 0 0
1:15 am 01:15 Clear 47 8.1 45 7.4 95 95 WNW 3 6 30.42 1030 10 16.09344 0 0
1:35 am 01:35 Clear 44 6.9 44 6.5 97 97 NW 6 9 30.45 1031 10 16.09344 0 0
1:55 am 01:55 Clear 44 6.7 43 6.3 97 97 NW 6 9 30.45 1031 10 16.09344 0 0
2:15 am 02:15 Clear 43 6.3 43 6 98 98 NW 7 11 30.45 1031 10 16.09344 0 0
2:35 am 02:35 Clear 44 6.6 43 6.2 97 97 WNW 5 7 30.45 1031 10 16.09344 0 0
2:55 am 02:55 Clear 45 7.2 45 7 99 99 WSW 3 6 30.42 1030 10 16.09344 0 0
3:15 am 03:15 Clear 45 7.1 44 6.5 96 96 W 3 6 30.45 1031 10 16.09344 0 0
3:35 am 03:35 Clear 44 6.7 44 6.5 99 99 W 6 9 30.45 1031 10 16.09344 0 0
3:55 am 03:55 Clear 43 6.3 43 6 98 98 WNW 6 9 30.45 1031 10 16.09344 0 0
4:15 am 04:15 Clear 44 6.4 43 6 97 97 WNW 7 11 30.45 1031 10 16.09344 0 0
4:35 am 04:35 Clear 44 6.7 43 6 95 95 WNW 7 11 30.45 1031 10 16.09344 0 0
4:55 am 04:55 Clear 44 6.7 43 6.1 96 96 WNW 7 11 30.48 1032 10 16.09344 0 0
5:15 am 05:15 Clear 44 6.5 43 5.9 96 96 NW 5 7 30.48 1032 10 16.09344 0 0
5:35 am 05:35 Clear 43 6 42 5.5 97 97 Calm 30.48 1032 10 16.09344 0 0
5:55 am 05:55 Clear 43 6 42 5.7 98 98 WNW 3 6 30.48 1032 10 16.09344 0 0
6:15 am 06:15 Sunny 41 5 41 5 100 100 WNW 3 6 30.48 1032 10 16.09344 0 0
6:35 am 06:35 Sunny 42 5.7 42 5.5 99 99 Calm 30.48 1032 10 16.09344 0 0
6:55 am 06:55 Sunny 43 6.3 43 6 98 98 NW 3 6 30.48 1032 10 16.09344 0 0
7:15 am 07:15 Sunny 46 7.8 45 7.4 97 97 Calm 30.45 1031 10 16.09344 0 0
7:35 am 07:35 Sunny 49 9.2 47 8.3 94 94 W 5 7 30.45 1031 10 16.09344 0 0
7:55 am 07:55 Sunny 50 10.1 48 8.8 92 92 Calm 30.48 1032 10 16.09344 0 0
8:15 am 08:15 Sunny 52 11.1 48 9.1 88 88 Calm 30.45 1031 10 16.09344 0 0
8:35 am 08:35 Sunny 54 12.2 50 9.8 85 85 WNW 5 7 30.42 1030 10 16.09344 0 0
8:55 am 08:55 Sunny 57 13.8 51 10.3 80 80 W 3 6 30.39 1029 10 16.09344 0 0
9:15 am 09:15 Sunny 60 15.7 51 10.3 70 70 WSW 6 9 30.39 1029 10 16.09344 0 0
9:35 am 09:35 Sunny 63 17.1 50 10 63 63 SW 9 15 30.36 1028 10 16.09344 0 0
9:55 am 09:55 Sunny 64 17.9 48 9 56 56 WSW 10 17 30.36 1028 10 16.09344 0 0
10:15 am 10:15 Sunny 65 18.6 47 8.1 51 51 WSW 8 13 30.36 1028 10 16.09344 0 0
10:35 am 10:35 Sunny 66 19.1 47 8.4 50 50 WSW 8 13 30.36 1028 10 16.09344 0 0
10:55 am 10:55 Sunny 67 19.4 45 7 45 45 SW 7 11 30.36 1028 10 16.09344 0 0
11:15 am 11:15 Sunny 68 20 45 7.3 44 44 WSW 8 13 30.33 1027 10 16.09344 0 0
11:35 am 11:35 Sunny 69 20.4 46 7.7 44 44 SW 8 13 30.3 1026 10 16.09344 0 0
11:55 am 11:55 Sunny 69 20.5 42 5.7 38 38 WSW 8 13 30.3 1026 10 16.09344 0 0
12:15 pm 12:15 Sunny 70 20.9 43 6 38 38 W 9 15 30.3 1026 10 16.09344 0 0
12:35 pm 12:35 Sunny 70 21 43 6.2 38 38 WSW 8 13 30.3 1026 10 16.09344 0 0
12:55 pm 12:55 Sunny 71 21.5 44 6.6 38 38 SW 8 13 30.3 1026 10 16.09344 0 0
1:15 pm 13:15 Sunny 71 21.5 42 5.5 35 35 W 9 15 30.3 1026 10 16.09344 0 0
1:35 pm 13:35 Sunny 72 22 44 6.7 37 37 W 10 17 30.27 1025 10 16.09344 0 0
1:55 pm 13:55 Sunny 71 21.8 40 4.4 32 32 WSW 5 7 30.27 1025 10 16.09344 0 0
2:15 pm 14:15 Sunny 72 22.2 42 5.4 34 34 SW 7 11 30.24 1024 10 16.09344 0 0
2:35 pm 14:35 Sunny 72 22.4 42 5.4 33 33 WSW 3 6 30.24 1024 10 16.09344 0 0
2:55 pm 14:55 Sunny 73 22.8 43 5.9 34 34 WSW 9 15 30.24 1024 10 16.09344 0 0
3:15 pm 15:15 Sunny 74 23.1 43 6.2 34 34 SW 9 15 30.18 1022 10 16.09344 0 0
3:35 pm 15:35 Sunny 74 23.1 41 4.8 31 31 S 6 9 30.18 1022 10 16.09344 0 0
3:55 pm 15:55 Sunny 73 23 42 5.4 32 32 Calm 30.18 1022 10 16.09344 0 0
4:15 pm 16:15 Sunny 74 23.4 42 5.5 31 31 Calm 30.15 1021 10 16.09344 0 0
4:35 pm 16:35 Sunny 74 23.2 43 6.1 33 33 W 5 7 30.15 1021 10 16.09344 0 0
4:55 pm 16:55 Sunny 74 23.6 43 6.3 33 33 SW 6 9 30.15 1021 10 16.09344 0 0
5:15 pm 17:15 Sunny 74 23.5 44 6.5 34 34 S 7 11 30.12 1020 10 16.09344 0 0
5:35 pm 17:35 Sunny 74 23.4 44 6.4 34 34 S 12 19 30.12 1020 10 16.09344 0 0
5:55 pm 17:55 Sunny 74 23.6 45 7.1 35 35 SSW 12 19 30.12 1020 10 16.09344 0 0
6:15 pm 18:15 Sunny 74 23.3 44 6.6 34 34 S 8 13 30.12 1020 10 16.09344 0 0
6:35 pm 18:35 Sunny 73 23 44 6.6 35 35 SSW 12 19 30.12 1020 10 16.09344 0 0
6:55 pm 18:55 Sunny 73 22.7 43 6 34 34 SSW 9 15 30.09 1019 10 16.09344 0 0
7:15 pm 19:15 Sunny 72 22.4 42 5.8 34 34 S 12 19 30.09 1019 10 16.09344 0 0
7:35 pm 19:35 Sunny 71 21.8 42 5.8 35 35 S 10 17 30.09 1019 10 16.09344 0 0
7:55 pm 19:55 Partly Cloudy 71 21.5 42 5.3 35 35 S 12 19 30.12 1020 10 16.09344 0 0
8:15 pm 20:15 Sunny 69 20.5 42 5.7 38 38 SSE 10 17 30.12 1020 10 16.09344 0 0
8:35 pm 20:35 Sunny 67 19.6 44 6.4 42 42 SSE 9 15 30.09 1019 10 16.09344 0 0
8:55 pm 20:55 Sunny 65 18.2 44 6.5 47 47 SSE 10 17 30.09 1019 10 16.09344 0 0
9:15 pm 21:15 Clear 64 18 44 6.4 47 47 SSE 13 20 30.09 1019 10 16.09344 0 0
9:35 pm 21:35 Clear 64 18 43 6.1 46 46 SSE 14 22 30.09 1019 10 16.09344 0 0
9:55 pm 21:55 Clear 64 17.6 43 6.1 47 47 SSE 12 19 30.12 1020 10 16.09344 0 0
10:15 pm 22:15 Clear 62 16.7 44 6.8 52 52 SSE 10 17 30.12 1020 10 16.09344 0 0
10:35 pm 22:35 Clear 61 16.3 44 6.8 54 54 S 13 20 30.12 1020 10 16.09344 0 0
10:55 pm 22:55 Clear 61 16.1 44 6.8 54 54 S 13 20 30.12 1020 10 16.09344 0 0
11:15 pm 23:15 Clear 61 16.2 44 6.8 54 54 S 14 22 30.12 1020 10 16.09344 0 0
11:35 pm 23:35 Clear 61 15.9 45 7 56 56 S 14 22 30.12 1020 10 16.09344 0 0
11:55 pm 23:55 Clear 60 15.7 45 7.1 57 57 S 17 28 30.12 1020 10 16.09344 0 0

Powered by AerisWeather